FLOCK 4V-26 (46825 NORAD) Tracking and Keplerian Element Data

This shows tracking and keplerian element data for the satellite.

Feedback or suggestion? Click here.




ElementValue
Catalog46825
NameFLOCK 4V-26
Epoch Orbit545
Epoch Day338.94842331
Epoch Year2020
RAAN50.3912
Inclination97.4671
Eccentricity0.0005244
Argument of Perigee299.7824
Mean Anonmoly60.2882
Mean Motion15.14856644
Decay Rate1.873E-05
L11 46825U 20061BQ 20338.94842331 .00001873 00000-0 10425-3 0 9998
L22 46825 97.4671 50.3912 0005244 299.7824 60.2882 15.14856644 5451

Live tracking and technical data element details for FLOCK 4V-26 (NORAD 46825). FLOCK 4V-26 can be tracked NOW for your location showing map with azimuth and elevation plus other details from your city location.

Track the satellite on the map from your city or location and see movement details for azimuth, elevation, latitude, longitude, range, height, and movement on the map or in text.







IsCatalogInMostPopularTable: catalog: 46825, numindb: 14
Update: records affected: 1



GetName: 46825 FLOCK 4V-26

Hit Count: updated at: Sat, 05 Dec 2020 05:07:09 GMT